Wind_Speed
11 11 12 14 17 22 25 24 23 18 13 17 18 15 17 15 12 15 13 15 21 17 16 21 19 20 20 17 16 15 15 15 15 15 13 13 12 11 12 11 11 11 9 10 12 12 13 15 16 17 18 18 17 17 18 19 19 19 20 20 20 18 16 17 16 15 15 15 14 12 11 9 8 7 6 6 5 4 4 5 5 5 5 5 4 4
12 12 15 21 22 23 23 22 21 16 11 13 15 13 15 14 11 13 13 14 19 15 13 19 20 20 20 18 16 16 16 16 16 16 15 15 13 10 11 12 11 10 9 9 10 11 12 15 16 17 19 19 18 18 19 19 19 20 21 21 21 19 17 17 16 15 15 15 14 13 12 10 8 8 8 9 9 7 7 9 8 7 6 4 4 4
12 14 20 24 21 18 18 20 20 16 12 12 12 10 11 12 10 11 13 14 16 11 11 18 18 17 18 17 16 17 16 15 15 16 15 14 13 11 11 11 11 12 12 10 10 12 14 15 16 17 19 18 17 18 18 19 21 22 22 22 23 23 20 17 15 15 14 13 13 11 10 9 9 11 13 14 14 11 11 12 11 10 8 5 4 4
11 14 21 21 17 18 19 22 22 14 11 11 10 10 10 12 12 10 12 15 14 10 10 14 13 12 14 14 15 16 15 13 13 15 13 12 13 12 12 10 10 13 14 12 12 12 13 15 15 16 18 17 17 18 19 21 23 24 22 23 24 24 22 19 17 17 15 12 12 11 10 10 10 11 12 14 16 14 14 13 11 11 8 6 5 3
12 9 14 19 19 20 19 20 22 13 9 11 11 11 10 13 15 10 11 14 12 10 8 8 8 9 12 14 13 13 13 13 13 13 13 13 13 12 11 10 11 13 14 14 13 11 13 15 16 16 17 17 18 18 21 25 25 22 21 24 27 26 25 22 18 17 16 14 15 14 12 10 10 10 10 13 16 15 14 12 9 8 7 5 3 2
14 5 9 19 18 19 18 17 20 15 9 10 11 12 10 13 16 13 13 14 9 9 11 11 9 9 13 17 16 13 13 15 13 14 15 14 14 12 11 12 12 13 14 13 12 12 13 15 16 17 17 18 18 19 24 26 23 20 20 23 26 26 24 21 18 18 18 18 18 17 15 13 11 10 12 15 17 16 14 10 7 6 5 4 3 1
12 9 10 16 17 19 18 15 19 18 11 9 11 12 9 10 14 14 15 13 8 8 13 16 12 9 11 16 18 16 15 17 15 15 16 14 13 13 11 12 13 14 14 13 12 12 12 14 15 16 17 19 20 21 24 25 21 20 21 24 26 26 22 19 18 20 20 19 18 17 18 18 15 14 16 17 17 15 12 9 8 7 5 3 2 2
14 14 13 16 18 18 16 13 17 19 13 7 11 14 13 11 13 15 14 11 9 8 11 16 15 11 10 13 17 19 17 18 18 16 16 14 13 14 13 13 14 14 14 13 12 13 12 14 14 14 17 20 20 21 22 23 23 21 22 25 27 26 21 17 19 22 21 18 17 17 17 19 18 17 18 18 17 14 12 10 10 7 4 3 3 3
16 16 14 16 16 14 14 14 16 20 14 7 11 14 14 13 13 14 12 10 10 9 9 14 16 12 10 10 14 20 19 19 21 20 17 15 15 16 16 15 14 14 14 14 13 13 13 15 14 14 18 21 20 20 20 21 22 22 24 26 26 25 21 19 20 22 20 17 17 17 17 19 18 16 19 21 18 16 14 12 10 7 5 4 4 4
10 16 14 13 12 10 14 15 16 19 15 8 12 13 11 11 11 11 10 9 10 9 10 15 17 12 10 10 11 15 19 19 18 17 16 17 18 18 16 15 15 14 14 14 13 13 14 16 14 15 20 22 22 20 19 19 20 22 25 25 25 25 23 21 22 21 18 17 17 17 18 19 18 18 21 21 18 17 16 13 10 7 5 5 5 5
4 14 15 11 10 8 12 14 15 19 16 11 13 12 10 9 8 8 8 8 9 9 14 18 19 15 11 10 12 13 15 16 15 14 16 18 19 18 16 15 16 14 13 14 14 13 14 16 15 17 20 23 23 21 19 19 20 23 25 25 26 26 23 22 22 19 17 17 17 16 17 18 19 22 24 21 19 19 16 13 11 8 6 6 6 6
6 13 13 10 10 7 10 12 14 19 18 12 11 10 10 9 7 7 6 7 8 10 14 18 19 17 13 10 12 14 15 16 15 15 18 19 19 18 16 15 15 15 14 14 14 12 13 14 17 19 21 23 24 23 21 21 21 23 25 25 25 23 20 21 20 17 17 17 15 15 16 17 21 26 24 20 19 18 15 13 11 10 8 7 7 7
8 12 13 11 11 9 10 11 12 16 16 12 12 11 10 9 8 9 9 8 10 8 7 14 19 16 13 12 12 12 15 17 16 16 18 20 20 18 17 16 15 14 15 14 14 12 12 13 16 20 22 23 25 24 22 22 22 22 23 23 23 21 20 19 18 16 16 17 16 15 16 17 21 22 20 18 18 16 13 12 11 10 9 8 7 7
8 10 15 14 10 12 13 10 11 13 15 14 14 12 11 10 9 10 10 9 11 6 3 9 14 11 11 12 14 12 12 15 17 16 17 19 19 18 17 16 15 15 15 14 14 13 13 14 17 21 23 23 24 24 23 22 23 23 23 24 23 21 20 18 19 18 18 19 18 17 18 19 20 18 16 16 17 15 12 11 10 10 9 8 8 9
10 9 13 14 10 14 15 11 12 13 14 15 14 13 11 9 9 9 9 9 11 8 7 9 10 9 8 5 8 12 12 12 14 15 15 15 15 15 15 16 16 15 15 14 14 15 15 16 19 23 24 23 24 25 23 23 25 24 23 25 24 21 20 21 22 21 19 19 18 17 20 22 20 18 15 15 15 14 12 11 10 10 9 9 9 10
13 8 12 15 11 16 17 12 13 14 12 12 12 13 11 9 8 5 3 3 5 7 8 8 7 6 3 3 1 8 12 13 13 13 14 12 11 12 13 15 15 14 15 15 15 16 16 18 22 24 24 24 24 25 24 24 27 25 23 27 27 22 21 21 21 21 20 18 18 20 23 22 20 19 17 15 15 15 13 12 11 11 10 10 10 11
11 7 13 15 10 16 17 12 13 13 10 10 11 12 12 11 9 5 2 3 0 6 7 8 9 6 3 2 6 10 13 14 14 13 14 13 12 12 12 14 14 14 15 15 16 17 17 20 23 25 25 26 25 25 24 26 28 27 26 28 26 21 20 19 20 22 21 18 18 21 23 22 22 21 18 18 18 16 16 15 13 11 11 11 12 13
10 6 12 15 11 14 15 10 12 13 9 9 11 11 11 10 9 6 6 4 5 8 6 8 12 10 7 5 8 12 14 15 15 15 14 14 13 13 12 13 14 14 15 16 17 17 17 20 23 25 26 27 27 25 24 26 27 27 27 26 23 19 19 19 20 22 21 18 18 21 23 24 24 23 21 20 19 17 17 16 13 11 11 12 13 14
10 6 9 15 13 13 13 10 10 12 11 8 9 10 9 8 8 8 7 7 9 9 6 9 12 10 9 7 8 12 15 15 16 16 15 15 14 13 13 14 15 15 14 15 16 15 15 19 23 25 26 27 27 25 25 26 26 25 25 24 22 20 21 21 20 20 19 18 18 20 24 25 24 23 22 20 19 19 18 16 13 12 12 13 14 14
9 6 7 13 14 13 11 9 9 11 10 7 7 10 9 7 8 8 7 6 8 8 7 9 10 8 9 8 8 11 13 14 16 15 16 17 15 14 14 13 14 15 14 14 15 15 16 19 24 27 26 27 27 26 25 26 26 25 23 23 24 22 22 23 22 20 18 18 19 23 25 25 24 24 22 21 20 19 17 15 13 12 13 15 14 15
7 6 4 11 15 12 9 9 10 12 11 8 9 10 10 8 7 8 9 7 7 7 7 7 8 6 6 7 8 10 11 13 14 14 14 16 17 16 14 13 14 14 14 15 14 15 16 18 24 27 26 26 27 25 25 26 26 25 24 25 26 23 21 22 23 22 20 18 21 27 26 25 26 25 23 22 20 18 17 15 13 13 14 15 15 15
5 6 5 9 12 10 9 12 14 13 13 11 9 10 10 10 8 9 10 10 8 7 6 6 8 5 4 6 9 11 10 11 13 14 15 15 17 16 12 12 13 13 14 15 14 15 16 18 23 26 25 26 27 25 25 27 27 27 26 24 24 22 21 21 21 22 22 21 24 28 27 26 27 25 23 22 20 18 17 15 13 13 15 15 15 15
2 3 6 8 9 10 10 14 16 15 15 13 10 10 10 10 10 9 8 9 9 7 5 4 6 3 4 4 8 10 9 7 6 7 9 10 11 11 11 12 12 13 14 14 14 14 15 18 23 24 22 22 24 25 26 27 27 28 27 24 23 24 22 21 20 20 22 25 27 27 27 27 27 25 23 21 19 18 17 14 12 14 15 15 15 15
1 3 7 8 9 9 8 10 13 13 13 13 11 11 11 11 12 9 7 6 8 9 7 4 5 4 4 2 3 3 4 3 2 2 3 4 5 7 10 11 12 13 14 14 14 14 15 19 21 22 21 20 22 26 28 27 27 27 26 24 25 25 23 22 21 19 22 27 27 26 27 27 27 26 23 20 18 18 18 15 13 14 15 16 16 15
4 4 6 8 9 9 7 8 11 12 12 10 11 13 13 13 14 11 8 6 7 11 12 7 6 4 4 5 3 2 3 3 2 3 5 5 6 8 10 11 12 14 14 15 16 16 17 18 18 20 23 22 24 28 28 26 27 27 25 24 24 25 24 23 22 20 23 29 28 28 29 28 26 25 21 18 18 19 18 15 14 14 16 16 16 16
4 4 5 7 9 10 10 9 9 11 11 9 11 14 14 15 17 13 8 7 7 10 13 11 7 5 5 8 8 6 5 3 3 5 5 5 7 9 10 12 13 13 14 16 17 16 17 17 17 20 23 23 25 26 26 26 27 26 25 24 23 24 24 23 22 23 27 32 31 29 29 28 25 22 20 18 19 20 18 15 14 15 16 16 16 16
3 4 5 5 5 7 9 8 7 9 11 11 14 16 15 15 16 12 9 8 8 8 10 12 10 9 9 11 11 8 6 5 5 6 6 6 7 9 10 12 12 12 13 15 16 15 17 18 18 20 22 22 24 25 25 26 26 25 24 24 23 23 24 24 24 26 30 31 29 27 28 26 23 21 20 20 20 21 18 15 15 15 16 16 16 17
3 5 6 6 6 5 5 6 7 11 15 15 16 17 15 15 16 14 11 10 9 7 8 10 12 14 13 13 12 7 4 3 4 5 6 7 8 9 10 12 13 14 15 16 17 18 20 19 17 19 22 23 23 24 25 25 24 23 23 24 24 22 25 27 26 27 29 26 24 25 25 23 21 21 21 21 21 20 17 15 15 16 16 16 16 16
5 5 4 5 7 6 4 3 5 9 13 15 17 18 17 18 18 17 14 13 11 9 7 7 11 14 14 18 18 5 3 2 1 2 5 7 9 11 12 13 14 15 17 18 19 19 20 20 18 20 23 24 24 25 25 24 24 23 22 23 24 23 27 30 26 26 27 24 22 24 23 21 21 21 21 21 20 19 17 16 16 16 16 16 16 16
6 4 2 4 6 6 6 6 6 8 10 13 16 18 18 19 20 19 16 16 14 12 10 9 10 11 14 20 18 3 5 2 2 1 5 8 10 12 13 14 15 16 18 19 19 19 19 19 19 20 22 25 26 26 25 23 23 23 23 24 25 24 26 28 24 23 25 23 21 21 21 21 21 20 21 21 20 19 17 17 17 17 17 17 16 16
6 2 2 3 5 5 5 4 6 9 11 13 14 16 18 18 19 19 17 16 15 14 14 13 10 10 11 15 13 2 3 2 2 4 7 8 11 13 13 14 16 17 18 18 18 19 19 18 19 20 22 24 27 26 25 24 23 23 24 24 24 24 25 25 22 22 23 22 20 20 21 22 22 21 21 21 20 19 18 17 18 18 18 17 17 16
6 3 2 4 5 4 2 3 6 9 11 13 15 17 18 18 16 16 14 15 14 13 14 14 11 10 10 12 12 5 1 4 5 6 7 8 11 13 14 15 16 17 18 18 19 19 20 21 21 21 23 25 27 27 25 24 23 23 24 24 23 24 25 24 22 21 21 22 22 21 22 23 23 21 21 21 20 20 18 18 19 18 18 18 17 17
6 5 3 3 3 3 0 3 3 9 10 11 13 16 18 16 15 15 14 16 16 13 12 11 9 10 11 11 11 9 5 6 6 6 6 8 11 12 13 15 16 17 18 18 19 20 20 20 20 23 25 26 27 27 25 25 25 24 24 23 23 25 25 23 23 22 21 22 23 21 22 24 23 21 21 21 21 20 19 19 19 19 18 18 17 17
6 6 3 1 2 4 3 2 4 10 9 6 5 11 17 17 16 16 15 16 18 15 12 11 11 13 14 13 12 10 7 4 4 5 7 8 10 12 14 15 16 17 17 17 18 20 18 17 19 24 28 27 27 27 25 25 25 24 23 23 23 24 24 22 22 22 21 23 23 22 23 25 23 20 20 21 21 21 20 20 20 19 18 17 17 17
5 5 2 2 3 6 5 1 6 8 5 2 3 4 11 15 17 17 16 17 19 18 17 17 17 17 17 15 12 9 5 1 3 6 9 10 11 12 15 16 16 17 17 17 18 19 18 18 21 26 28 26 26 26 24 23 24 23 23 23 23 23 24 24 23 21 21 22 22 23 25 25 22 20 21 21 21 21 20 20 20 19 18 17 17 17
5 2 1 3 5 6 4 5 6 3 4 6 4 3 4 9 13 14 14 16 18 17 17 18 19 18 17 15 10 5 2 1 4 7 10 12 13 14 14 14 15 17 16 16 17 18 19 22 24 26 27 27 26 26 25 24 25 25 24 23 23 24 24 25 24 22 22 22 22 24 27 25 22 22 22 22 22 22 21 20 19 18 17 16 16 17
3 2 2 4 4 4 4 4 4 3 4 5 4 4 4 4 9 12 11 12 14 15 15 17 18 19 16 10 4 2 2 3 6 7 11 13 14 14 14 12 14 15 15 15 18 20 23 25 25 27 28 28 27 27 25 24 25 26 25 23 23 23 23 24 24 23 23 23 23 25 26 24 23 24 23 23 24 22 21 21 20 18 18 16 15 16
4 3 5 4 2 4 5 4 4 5 5 4 5 3 2 1 3 9 9 9 12 15 16 16 18 18 14 7 3 2 1 5 7 4 8 13 14 13 12 12 13 14 14 16 19 22 24 25 25 27 28 28 27 25 24 25 26 26 25 24 24 23 23 23 23 23 25 27 28 29 26 22 22 24 24 24 23 22 23 23 21 21 21 19 17 16
5 4 6 6 4 5 5 3 3 3 3 4 6 4 1 2 1 6 7 7 9 13 16 17 18 18 13 6 6 5 4 6 5 1 2 9 13 12 12 12 13 14 16 18 20 21 24 25 25 27 28 28 27 25 25 26 26 25 24 25 24 23 23 23 22 24 29 33 35 33 29 25 24 26 27 25 22 23 25 25 23 24 25 23 20 17
5 4 6 6 5 4 4 3 1 2 4 4 5 5 2 1 3 7 7 4 2 3 6 11 14 14 9 6 7 7 6 5 2 2 1 5 11 12 11 13 13 14 16 19 20 22 24 25 26 27 28 28 27 26 26 27 26 23 23 24 24 23 23 23 23 25 28 30 31 32 31 30 30 32 32 28 25 25 27 26 25 26 26 24 19 15
5 4 4 5 5 3 3 3 2 4 4 5 5 5 3 2 5 7 4 1 4 4 1 3 7 7 6 7 7 6 4 0 2 3 2 7 11 12 11 13 15 16 17 19 21 23 24 25 26 27 27 27 26 26 26 26 24 22 22 22 23 22 22 22 23 23 23 24 27 31 33 33 33 35 34 32 30 29 29 28 27 26 25 22 16 13
5 3 2 4 4 4 4 3 1 4 3 3 4 4 2 2 3 2 1 4 4 4 3 1 3 3 4 7 7 4 1 2 3 3 3 8 11 12 13 13 14 16 18 20 22 23 24 24 25 25 26 25 25 25 26 25 23 22 21 21 23 23 21 21 23 24 24 25 27 30 33 33 33 34 34 32 32 31 28 27 27 27 25 21 16 13
3 3 3 3 2 3 4 3 1 3 3 2 2 1 1 1 1 3 4 4 4 6 5 3 1 1 3 6 6 4 2 1 1 2 3 8 10 11 13 13 13 14 17 20 22 24 23 23 23 24 25 25 25 24 25 24 22 21 20 21 23 23 21 23 27 27 25 26 29 31 33 33 33 33 33 32 32 30 25 23 23 24 23 19 16 15
4 4 3 2 3 3 4 1 1 1 2 3 2 1 1 3 4 5 5 4 6 7 5 4 5 3 1 4 5 5 4 2 1 2 4 8 10 10 10 11 12 14 16 19 23 24 23 21 22 24 25 25 25 23 24 24 22 20 21 22 23 22 21 25 29 26 25 27 30 31 32 33 31 31 30 30 29 26 21 20 21 20 19 18 16 15
4 2 3 2 4 3 3 1 2 2 2 2 1 1 3 3 2 4 5 4 6 6 6 6 6 5 2 1 3 5 4 3 2 1 3 5 9 11 10 10 10 11 14 18 21 23 22 20 22 24 24 25 25 23 24 24 23 22 22 22 23 24 24 26 27 25 23 25 26 27 27 27 26 25 26 26 26 22 20 22 22 19 17 17 16 15
1 2 2 2 1 1 3 2 2 3 2 0 1 3 3 1 1 2 4 4 6 6 6 6 7 7 4 1 1 2 4 4 4 2 2 4 7 10 11 12 12 12 15 17 20 22 22 20 22 24 24 24 25 24 23 23 24 25 23 22 24 26 26 27 26 24 23 24 26 27 25 22 22 22 22 24 24 22 21 23 23 20 18 18 17 15
2 2 3 3 1 2 2 2 2 2 2 1 2 3 2 0 1 1 2 4 6 6 6 6 6 6 5 3 2 1 1 2 3 3 3 4 7 9 10 12 14 15 17 18 20 22 21 20 21 23 23 24 24 24 23 22 23 23 23 23 25 26 26 25 24 23 23 25 28 30 26 22 22 22 21 22 22 21 21 22 22 21 19 19 17 16
2 2 4 5 4 3 2 1 0 2 1 2 2 2 1 0 1 3 2 4 8 7 6 6 6 6 6 5 4 3 2 1 1 3 3 3 5 7 8 10 12 15 18 19 20 21 20 19 21 22 22 23 24 23 23 21 21 21 22 23 24 25 24 23 23 23 23 24 27 28 24 22 24 23 20 21 22 20 20 22 22 21 21 21 19 17
1 3 4 4 5 5 4 2 3 3 3 4 3 3 2 0 2 3 2 4 9 8 6 7 7 7 7 6 5 5 5 3 2 2 3 2 4 5 6 9 11 14 16 17 18 20 19 18 19 21 22 23 23 23 22 20 20 21 22 23 24 25 24 23 23 23 24 23 23 23 21 21 23 22 20 20 21 20 19 21 22 22 21 22 22 20
3 4 3 3 5 5 3 3 4 3 2 3 4 5 4 2 2 3 2 5 8 8 7 7 7 7 7 6 5 5 6 5 4 3 3 3 4 4 6 8 10 13 15 15 17 19 19 17 17 19 21 22 22 21 20 19 19 20 21 22 24 24 24 23 23 22 23 22 21 21 21 21 22 21 19 20 21 19 17 19 23 23 21 22 25 25
2 3 3 5 5 2 2 2 2 1 1 3 5 6 5 4 4 5 6 7 6 6 7 7 6 7 7 7 6 5 6 6 4 4 5 4 4 5 6 8 9 11 12 13 14 17 18 16 16 19 21 21 20 21 21 19 18 20 21 22 23 24 24 24 23 21 21 21 21 22 22 21 21 21 19 19 20 18 16 17 20 22 21 21 25 28
Wind_Direction
192 195 202 206 204 202 202 205 210 214 222 221 212 209 213 215 215 208 195 178 184 192 204 212 220 222 219 208 190 179 184 198 204 204 207 210 211 208 206 206 205 205 192 177 182 186 186 185 184 183 180 174 173 173 172 171 170 168 166 165 166 171 172 173 174 172 170 169 174 181 181 177 174 173 174 163 158 158 157 155 140 123 128 143 141 134
198 205 209 209 208 206 203 207 213 217 229 224 212 206 206 209 203 193 185 174 183 198 210 215 224 225 222 216 198 183 186 196 202 203 207 210 210 210 208 207 206 200 181 167 175 188 193 190 184 182 177 172 170 170 169 168 166 167 168 165 166 171 173 174 181 179 171 172 179 184 184 178 167 168 171 168 173 176 167 161 148 134 135 136 137 145
201 215 214 209 209 209 204 205 209 210 213 209 202 198 200 201 194 187 185 181 186 203 218 218 224 227 223 218 201 190 193 197 200 206 209 211 211 211 211 209 203 197 188 180 184 193 199 196 187 183 180 174 169 167 167 167 168 170 169 165 167 175 176 175 182 180 173 178 183 185 184 177 167 171 179 180 177 175 174 168 156 149 149 140 136 147
201 218 217 208 207 210 205 202 201 202 208 206 202 203 206 200 194 193 189 187 190 201 227 227 227 230 221 212 204 199 201 199 199 206 212 215 217 215 214 210 200 198 197 192 192 194 195 196 191 185 180 174 172 168 164 169 174 174 168 163 169 180 181 178 181 180 176 176 174 174 179 174 168 166 169 170 164 164 168 161 150 148 152 150 145 161
208 220 216 204 203 206 203 199 198 200 206 208 213 215 212 199 198 200 181 177 186 197 219 222 221 230 214 204 206 202 202 203 198 202 210 215 219 221 216 213 208 205 205 200 197 195 196 198 194 189 182 176 177 166 162 177 183 173 162 163 174 187 189 182 179 179 176 171 164 169 176 163 147 143 144 152 153 154 154 145 143 152 159 168 174 215
212 201 200 197 194 198 198 196 200 204 206 208 213 223 223 199 196 197 174 168 186 200 202 204 221 230 210 208 210 197 198 204 200 202 210 212 214 217 214 211 212 210 210 208 202 199 202 203 195 189 183 178 176 164 167 184 184 166 161 166 175 187 189 182 179 183 181 174 170 173 175 161 141 145 155 157 155 150 146 146 163 170 174 196 205 192
206 174 183 195 189 195 201 202 202 201 209 209 196 207 219 193 189 189 175 176 199 209 197 199 222 238 211 211 209 197 197 200 200 206 209 208 206 209 211 209 208 208 208 208 208 206 205 206 198 187 181 176 172 164 170 184 181 171 168 165 174 185 184 179 182 188 182 174 175 177 175 171 162 164 169 164 157 151 148 159 175 183 193 201 162 128
203 182 187 199 195 197 204 205 197 195 208 208 175 186 200 196 194 188 182 193 210 212 197 194 213 240 229 212 199 194 198 200 202 206 206 205 204 207 211 210 207 206 205 203 208 211 207 208 201 185 176 173 169 163 167 179 179 179 173 166 178 187 181 179 185 188 184 176 178 179 176 175 171 170 170 163 157 156 162 173 181 185 180 151 122 125
203 200 194 196 198 197 201 201 189 190 205 191 156 174 189 195 200 194 193 206 208 209 206 197 205 229 238 215 191 191 198 204 205 202 200 201 204 209 212 210 207 205 205 203 206 209 208 207 198 180 175 170 165 162 167 178 179 178 177 174 180 184 181 186 186 184 185 179 178 179 177 174 167 163 164 162 159 160 167 176 179 172 148 132 130 130
195 211 203 195 200 197 197 199 185 188 198 171 155 165 169 178 192 197 202 206 204 212 218 206 200 214 235 215 191 193 201 207 205 197 197 200 205 211 209 207 206 203 204 204 205 206 207 206 191 174 172 166 162 164 168 178 179 176 177 175 173 174 180 187 184 180 181 179 178 180 179 171 158 152 155 157 159 162 168 171 167 157 144 141 137 125
182 204 203 200 208 198 190 191 181 186 193 170 161 163 155 165 180 189 207 207 202 219 225 214 201 207 231 217 198 203 206 205 199 190 194 199 205 210 207 205 203 201 201 201 203 203 204 201 181 168 169 165 163 166 168 175 178 176 176 172 168 169 176 181 179 178 180 181 180 181 181 173 162 159 157 156 161 166 170 166 157 151 149 146 137 126
196 195 194 197 210 199 175 176 173 183 191 180 174 171 159 164 171 177 196 204 209 223 225 217 205 207 226 224 205 205 204 199 194 192 194 197 204 206 204 203 199 198 198 197 200 198 199 195 176 169 171 165 164 165 167 173 174 174 175 173 168 166 171 175 173 176 182 183 179 180 182 176 170 167 162 158 164 167 168 162 153 150 148 142 137 131
198 193 186 183 198 198 179 171 171 181 187 186 188 184 171 169 171 184 188 194 213 224 219 212 207 210 226 229 219 205 193 191 191 197 198 198 202 202 200 199 195 196 197 195 196 191 194 195 177 172 171 165 164 164 165 170 172 173 176 177 172 166 168 171 169 174 180 181 179 178 179 176 171 168 162 159 162 164 163 158 152 150 146 141 141 137
189 188 185 182 183 196 197 178 170 180 182 187 193 188 185 178 172 188 189 192 211 199 149 203 207 219 232 228 225 213 189 188 192 198 204 205 204 200 197 195 191 194 195 193 191 187 193 193 178 175 173 167 165 163 161 169 174 175 178 182 177 166 166 170 171 175 176 177 179 176 180 183 174 164 159 161 163 161 156 153 149 145 142 142 142 137
189 185 186 191 179 183 200 196 177 178 180 189 197 194 198 192 177 190 191 194 206 185 159 186 203 224 229 221 225 211 190 189 193 196 205 208 206 200 194 191 190 193 194 190 188 189 194 188 179 178 174 169 169 164 162 171 175 174 178 182 177 169 169 172 173 173 172 172 172 172 182 186 177 168 163 161 162 158 150 146 145 141 138 139 138 135
198 190 175 190 189 178 193 202 183 178 181 189 196 199 206 201 182 182 184 194 213 190 172 185 206 223 207 75 121 203 194 190 189 192 197 195 194 193 189 189 190 193 193 189 186 189 192 187 182 180 176 172 173 169 167 173 176 173 174 177 178 177 175 172 170 170 169 168 167 172 181 179 172 169 165 161 163 161 152 146 144 140 136 138 137 135
198 178 161 181 195 185 191 197 186 186 182 180 195 202 202 206 201 179 125 59 198 208 190 192 212 220 211 160 164 188 198 192 184 186 192 190 185 183 184 188 191 192 190 185 184 186 189 189 184 182 179 177 179 178 174 177 177 173 173 174 178 183 178 171 171 170 168 165 164 171 177 175 171 169 167 168 168 162 156 151 145 139 136 139 140 137
196 163 159 181 185 183 192 192 190 204 202 183 193 193 188 209 221 202 184 163 191 218 205 197 214 219 221 206 168 181 196 191 187 190 192 193 189 187 190 191 192 191 184 182 184 184 186 189 184 181 182 183 184 182 177 177 176 173 173 174 175 183 182 174 172 171 168 166 164 169 175 176 174 173 172 172 167 161 158 152 143 139 140 143 143 139
200 176 162 185 183 175 189 190 188 211 223 216 201 185 178 198 202 193 199 191 196 216 217 210 219 224 223 205 166 184 195 189 190 193 195 196 194 196 199 195 192 185 180 182 184 182 185 188 183 180 182 182 182 180 175 173 173 171 171 172 172 181 186 178 171 170 169 166 164 168 177 179 178 177 175 170 166 163 158 149 142 141 143 145 144 142
202 203 159 179 182 170 183 196 187 193 210 235 223 197 193 204 198 195 206 204 199 210 219 219 220 224 224 209 182 187 191 189 192 195 201 203 199 202 203 196 187 181 180 182 181 181 185 187 184 181 181 179 178 178 174 170 169 168 167 169 173 182 188 179 169 169 170 169 170 173 177 179 177 176 175 171 167 162 154 147 142 141 145 146 145 145
197 218 164 170 179 174 182 200 195 183 184 204 210 195 192 201 203 202 209 215 215 212 212 217 226 228 211 201 203 198 188 190 195 198 204 206 205 206 203 191 182 181 183 180 177 180 184 185 183 182 183 182 179 178 173 168 169 168 165 168 174 181 187 180 171 170 169 170 178 179 179 179 178 176 175 172 167 159 152 147 142 142 147 148 147 148
197 214 177 162 177 187 187 193 201 196 187 193 200 195 194 195 196 200 204 208 217 226 220 217 234 236 166 175 204 206 203 203 202 204 209 210 210 206 195 186 183 181 180 175 173 178 182 184 182 180 181 180 178 175 168 166 169 167 162 165 171 176 183 182 177 174 172 173 180 180 179 180 179 177 177 174 166 159 153 146 143 147 150 150 151 151
222 224 180 161 178 193 180 184 205 208 195 198 207 205 201 199 201 206 200 193 204 226 235 230 234 211 122 162 203 202 204 204 194 207 214 210 207 196 181 180 180 176 172 170 171 176 181 184 181 177 175 173 172 169 163 165 170 167 161 163 169 173 178 181 177 177 181 183 182 181 180 179 178 179 178 172 164 160 156 148 147 153 152 153 154 153
229 222 179 158 172 185 167 176 206 214 204 203 207 209 209 206 206 215 217 200 203 213 212 214 228 194 121 147 223 210 193 169 111 157 187 173 169 172 172 172 170 169 168 168 173 178 181 181 178 173 170 169 169 167 165 168 169 164 161 163 169 171 174 176 173 176 185 186 183 182 182 180 179 180 176 168 163 161 158 153 152 156 156 155 156 156
199 208 181 162 166 174 169 178 197 206 208 207 205 208 213 210 205 213 227 222 214 215 212 215 232 212 134 129 151 140 144 145 136 169 180 177 170 170 173 171 169 169 169 171 177 181 181 178 174 171 170 169 168 166 169 170 167 164 164 165 168 170 170 171 171 174 182 184 182 182 183 181 180 178 172 165 163 162 159 155 155 158 159 158 159 159
204 215 194 177 172 176 184 186 187 196 202 205 206 205 209 212 207 205 213 216 212 214 215 219 230 216 164 157 166 169 164 157 150 159 174 188 184 179 175 173 173 172 173 177 179 180 182 179 173 170 169 168 167 167 169 170 167 166 166 166 168 167 167 169 170 172 176 179 180 180 182 181 177 173 170 165 164 163 160 157 158 161 162 162 162 161
232 239 233 231 215 195 191 182 169 182 193 200 205 204 204 209 210 206 208 215 215 215 219 222 225 227 213 197 192 189 189 183 162 159 171 181 182 183 178 173 173 173 176 181 180 179 181 180 175 170 168 167 167 168 169 170 168 167 167 167 168 168 168 167 167 169 171 174 176 176 178 178 174 170 169 167 166 166 161 159 163 164 164 166 165 164
242 236 238 264 273 256 208 172 165 184 194 197 201 204 204 206 210 212 215 219 219 223 227 219 218 230 237 236 228 205 168 164 157 164 181 181 178 179 176 173 174 176 179 181 182 182 181 179 175 171 168 165 167 169 170 171 170 169 168 168 168 170 170 168 167 168 168 169 171 171 173 173 171 170 170 168 167 166 162 163 167 166 165 167 167 168
239 230 221 257 271 275 256 201 189 199 202 201 200 201 202 203 208 213 219 225 226 229 233 218 212 221 236 250 253 249 77 60 106 160 184 180 180 179 175 177 181 182 183 184 185 187 183 178 174 173 172 168 168 170 171 171 172 171 167 167 169 170 169 169 170 170 169 169 169 168 167 167 167 169 170 169 166 165 165 166 167 166 167 169 170 171
235 217 191 252 262 260 244 227 223 221 217 215 210 206 203 204 207 210 214 221 224 232 243 241 229 222 230 249 258 281 61 11 15 140 186 184 186 184 179 182 186 187 188 188 187 187 183 177 172 172 174 173 172 173 172 172 173 170 166 166 168 166 164 167 170 169 167 167 167 165 163 164 166 166 168 167 165 165 166 166 167 168 169 170 172 173
222 191 144 246 258 239 228 249 254 233 222 221 218 214 210 208 209 210 211 216 220 226 234 241 248 241 234 248 258 269 72 298 267 196 200 194 189 187 183 185 189 191 191 189 188 187 182 178 176 174 174 175 176 176 175 174 173 172 170 167 165 164 163 164 168 166 163 163 163 163 163 166 167 167 167 168 167 166 167 166 168 170 171 172 173 173
211 235 198 229 248 221 200 308 264 220 212 219 220 217 212 207 209 212 212 216 220 222 226 231 241 245 243 251 256 253 239 260 251 220 205 197 193 191 188 189 190 192 192 188 186 187 185 181 180 179 177 176 175 175 176 175 172 170 169 165 163 165 165 165 167 166 161 163 165 164 167 170 170 169 169 168 168 168 167 167 170 172 173 173 174 174
206 231 218 216 247 225 256 330 223 186 196 218 219 215 212 208 208 211 212 218 222 224 226 228 234 244 251 254 254 255 253 251 249 229 206 198 195 193 194 194 192 192 192 189 185 187 188 184 180 180 180 178 178 179 179 177 174 172 167 161 161 167 167 167 169 166 161 165 168 165 168 173 171 169 170 171 170 169 167 169 172 175 175 174 175 177
204 225 229 264 278 270 321 2 175 184 196 211 209 206 208 209 207 209 213 215 217 221 227 235 243 247 250 250 251 259 268 265 247 222 207 202 197 194 196 198 197 192 189 190 187 185 185 182 177 177 178 177 178 178 176 175 173 167 161 159 163 167 167 166 167 165 164 167 168 167 172 175 172 170 171 172 171 170 170 172 175 176 176 176 177 180
197 217 247 310 278 282 302 235 188 198 191 105 67 187 205 211 211 213 217 214 212 217 222 230 239 243 247 252 256 268 287 291 223 218 208 203 200 196 197 197 195 191 187 188 189 185 180 176 174 174 175 176 175 174 174 173 166 158 157 161 164 165 166 166 164 164 166 166 166 169 174 174 171 170 171 171 171 172 173 175 176 176 176 177 179 182
191 185 321 288 268 283 278 202 184 168 116 106 94 116 176 205 209 214 223 221 216 217 218 224 234 240 247 255 260 276 306 254 236 228 211 204 200 198 200 197 191 190 188 186 187 185 180 177 175 173 174 173 172 172 174 171 163 158 160 164 166 167 170 170 167 166 167 166 166 172 175 173 170 172 172 171 172 173 174 175 175 175 176 178 181 184
158 119 281 269 272 304 294 213 171 135 143 134 118 144 161 187 202 205 218 225 220 217 218 224 233 239 244 248 249 284 315 275 258 232 203 200 202 201 204 199 189 187 185 183 186 185 182 180 175 173 173 171 172 174 172 166 162 160 160 163 167 171 173 175 176 174 172 171 172 175 177 175 173 174 174 175 175 173 172 174 173 174 176 177 179 183
160 172 254 271 292 318 303 249 186 166 166 121 77 115 146 349 232 202 216 233 220 214 218 222 231 239 238 222 175 154 256 268 271 247 186 190 196 198 201 196 186 181 179 180 182 180 181 180 173 172 174 173 175 175 167 161 162 162 164 167 170 171 173 176 177 173 173 178 181 181 179 175 174 175 177 178 178 176 176 176 177 180 183 182 181 183
165 205 264 280 284 296 304 274 194 140 110 68 51 68 98 348 298 184 210 232 210 206 216 220 228 238 236 205 163 170 222 254 260 299 150 186 187 184 191 190 179 173 176 178 178 176 178 177 171 171 175 177 178 174 165 162 165 165 168 172 173 174 176 177 176 176 180 185 187 186 183 179 179 182 182 181 179 181 182 182 183 189 192 192 191 187
158 202 248 260 268 285 302 283 208 96 64 42 20 15 35 93 188 188 199 201 135 165 214 222 231 237 227 188 170 193 233 253 251 23 344 196 177 170 181 183 173 171 173 174 173 173 174 173 171 173 178 179 176 170 165 165 166 168 170 172 173 177 181 183 183 182 182 182 184 185 186 186 188 190 188 185 183 184 185 186 189 193 194 194 191 184
183 206 243 268 280 286 280 260 167 110 64 27 17 22 55 146 186 191 191 42 22 19 33 226 242 240 206 185 194 212 226 208 39 0 275 195 169 164 177 182 175 172 171 168 169 169 170 173 175 177 181 179 171 164 164 166 166 168 170 171 173 178 182 183 180 176 173 175 181 187 189 190 192 193 191 190 190 189 188 190 193 193 193 191 183 176
208 207 249 279 281 294 293 278 144 113 84 12 21 52 85 195 191 181 351 351 346 351 19 16 252 243 206 203 211 218 169 100 41 356 227 187 167 164 178 182 175 171 167 164 167 168 168 173 177 180 181 177 168 164 166 166 167 169 170 173 179 184 182 175 171 169 170 175 182 187 189 191 193 193 192 193 193 191 189 191 193 194 194 189 178 173
199 219 226 219 234 281 282 270 209 118 110 29 15 78 164 273 358 357 336 351 20 13 8 12 335 274 230 212 205 191 164 155 29 32 163 169 161 165 178 180 173 169 165 164 168 172 171 172 176 179 179 177 173 170 169 169 170 169 170 174 180 183 182 177 175 174 175 179 184 187 189 191 192 191 191 193 193 191 187 186 189 191 191 184 175 173
179 230 248 187 173 232 262 272 51 45 41 23 15 36 6 0 0 340 330 7 30 16 5 17 25 21 255 219 198 174 166 175 141 96 143 157 154 155 167 176 175 171 168 167 170 172 173 174 175 176 176 179 179 175 172 173 171 168 175 181 180 179 180 178 177 177 178 182 186 186 188 190 190 189 190 192 191 187 182 181 183 185 186 184 180 178
192 244 287 225 188 229 283 6 36 332 329 6 7 314 332 359 8 331 331 7 27 18 13 16 22 37 60 215 198 184 189 201 194 129 130 156 158 153 154 168 182 183 178 173 171 172 174 175 174 174 176 180 182 178 176 176 172 172 180 181 178 179 178 172 172 175 176 177 178 179 181 184 184 184 186 187 186 183 181 182 184 183 184 187 186 184
261 281 285 267 218 284 278 248 266 289 291 24 224 253 270 273 104 353 348 31 44 31 29 30 28 37 47 32 241 213 216 226 229 215 151 160 173 169 164 168 177 186 191 185 176 175 176 174 173 176 178 180 183 183 181 178 176 178 178 172 171 176 175 170 170 173 171 171 174 174 172 172 175 178 181 183 185 186 185 186 186 185 186 189 189 186
179 209 248 259 281 299 259 201 229 248 199 154 184 198 216 276 59 316 339 67 67 47 44 48 40 38 41 25 359 351 237 224 230 216 180 161 168 172 172 171 171 180 191 190 181 178 179 176 175 178 180 180 183 185 183 181 182 181 174 168 169 172 170 168 169 169 167 170 175 175 171 169 172 176 178 181 185 187 188 188 189 189 188 188 186 184
159 193 238 235 229 252 272 72 271 244 184 179 193 163 153 306 312 279 254 103 88 70 56 54 50 50 49 37 27 43 81 123 191 201 191 165 154 157 166 170 171 178 187 187 181 181 184 182 179 179 181 182 184 186 185 183 182 177 170 168 170 169 167 168 169 168 168 169 172 174 174 174 175 175 176 180 185 189 190 189 190 189 190 190 185 181
237 234 237 229 227 243 253 222 209 219 195 182 165 102 72 3 323 293 255 107 91 85 77 68 62 58 52 40 38 63 89 103 125 171 179 160 144 147 158 165 169 176 182 181 178 182 188 189 183 180 181 183 185 187 186 182 177 174 170 170 171 169 168 170 170 169 169 168 169 172 172 173 176 176 175 177 183 189 193 192 192 191 192 194 193 188
237 251 259 243 229 234 250 218 198 209 209 165 125 84 70 57 19 3 25 66 71 74 75 76 80 77 65 48 41 63 85 89 96 128 140 142 145 143 149 159 166 174 177 176 179 185 189 189 184 180 181 184 187 187 185 178 174 174 172 170 171 171 170 169 168 169 170 170 171 174 173 172 175 176 175 177 182 188 193 197 199 199 196 198 202 202
269 286 279 264 258 282 341 289 238 270 23 107 100 81 66 38 22 38 51 51 55 62 60 60 67 73 72 63 51 61 78 81 84 100 106 110 122 130 142 155 163 170 172 174 183 189 187 182 179 178 181 186 188 187 183 175 170 172 172 171 172 172 169 166 163 165 168 171 172 175 175 173 174 176 177 180 182 184 184 188 197 202 201 203 208 211
Height
764 767 766 759 751 744 740 736 734 730 732 734 736 742 744 743 745 741 741 744 744 754 759 755 757 758 757 758 760 762 765 768 769 768 770 769 769 770 772 774 776 777 778 779 784 788 790 793 796 799 801 804 807 809 811 813 815 817 818 820 822 824 825 827 829 830 832 835 837 839 840 841 842 843 844 846 847 848 848 849 849 848 848 850 851 851
761 763 756 747 741 738 739 740 737 735 737 737 734 738 741 741 743 740 742 744 742 749 754 751 754 756 752 753 755 758 763 766 766 767 768 767 767 769 770 773 774 774 776 780 784 787 789 792 794 797 800 802 805 807 809 811 813 815 816 817 819 821 823 826 828 829 831 834 835 838 839 840 841 842 843 845 846 848 849 849 848 848 849 851 851 852
763 756 745 740 739 738 741 741 739 740 742 740 735 739 744 740 741 744 743 743 742 747 750 748 751 753 748 748 751 755 759 761 761 762 764 765 766 768 769 771 773 773 776 780 783 786 788 790 792 796 798 800 803 805 808 810 812 812 813 815 817 819 821 825 827 829 831 833 835 837 839 840 840 841 842 842 844 847 848 848 848 848 849 851 852 852
759 748 738 738 740 740 742 740 740 744 744 741 737 740 743 737 741 749 747 744 742 745 748 746 750 751 746 747 749 752 754 755 758 759 760 762 763 765 766 768 771 773 775 779 781 783 786 788 791 793 796 798 801 803 806 808 808 809 812 814 816 819 820 822 825 829 832 834 836 837 838 839 840 841 842 843 844 847 848 848 848 848 850 851 851 851
748 739 734 736 739 740 742 740 741 747 748 742 736 736 737 735 738 743 743 745 745 748 748 750 760 757 747 752 754 750 752 754 756 759 760 761 761 762 764 767 769 770 772 775 778 781 783 786 788 791 794 796 798 801 803 804 804 807 812 813 814 817 818 820 824 829 832 833 835 837 838 839 841 843 844 844 845 846 847 848 848 849 850 851 851 851
740 735 733 735 739 741 744 744 743 746 747 743 739 735 732 732 736 737 740 747 756 759 751 753 772 763 745 750 753 748 753 755 754 757 759 760 760 761 764 765 767 768 770 772 774 777 780 782 785 789 792 794 796 799 801 801 804 808 811 812 815 817 818 820 824 829 831 832 834 835 836 838 842 845 845 844 845 845 846 847 849 850 851 851 851 851
733 734 737 738 742 745 745 744 740 741 745 746 740 735 733 732 736 738 741 749 757 757 744 746 766 762 743 743 744 743 750 753 753 755 756 756 758 759 760 762 764 766 768 770 772 774 776 779 782 786 789 792 795 797 799 801 804 808 810 813 816 817 818 821 825 828 830 831 833 834 835 837 841 844 844 843 844 844 845 847 850 851 851 851 851 851
728 735 741 740 742 744 743 741 736 737 745 742 732 734 738 736 738 739 741 747 745 741 740 740 752 758 747 736 734 738 747 750 751 753 753 753 755 756 756 757 759 762 764 768 771 772 774 777 779 783 788 790 793 795 798 800 803 807 810 812 814 815 817 821 824 827 828 830 831 834 835 836 839 841 842 843 843 844 846 848 851 851 851 851 851 852
728 735 740 738 739 739 737 734 732 736 742 735 729 734 736 736 737 735 739 743 736 740 752 746 746 760 751 730 727 735 743 747 746 747 751 752 753 753 753 754 756 758 760 763 768 770 772 775 778 782 786 789 792 793 796 799 802 806 809 811 812 814 816 820 823 825 827 828 830 832 834 836 838 840 842 843 844 845 848 850 851 851 852 852 852 852
731 735 734 735 735 733 731 729 729 736 737 730 729 733 732 734 736 735 738 739 738 749 759 745 740 757 752 730 730 738 738 738 737 740 746 747 748 748 748 752 754 755 757 760 764 768 771 773 776 781 785 787 790 792 795 797 800 804 807 809 811 813 816 819 822 823 825 827 829 831 833 835 838 839 841 843 844 846 848 850 851 852 852 852 852 851
731 730 729 731 730 726 725 726 727 733 732 728 732 734 736 739 737 738 737 734 748 761 752 735 730 746 751 732 725 732 728 725 730 736 740 741 743 744 745 748 750 752 754 756 761 765 769 772 775 780 783 786 789 791 794 796 798 802 804 806 809 812 815 818 820 822 824 826 828 830 832 833 835 837 840 842 844 846 848 849 850 851 852 852 851 851
733 731 729 729 726 722 725 728 730 731 729 731 734 734 742 748 745 749 747 745 762 763 740 726 725 740 751 731 713 717 718 717 724 729 732 735 737 739 741 743 745 748 750 753 758 763 767 770 774 778 781 784 787 789 792 795 797 800 803 804 807 810 814 816 819 821 823 825 827 829 831 832 833 836 838 840 843 845 847 848 849 850 851 851 851 851
735 729 728 729 727 724 728 733 735 733 731 734 735 734 746 756 759 764 761 758 762 749 730 721 723 735 738 720 706 708 712 714 717 719 723 727 730 733 735 738 741 743 746 750 755 761 766 768 771 775 779 782 785 787 790 794 796 799 802 804 806 809 812 815 817 820 822 824 826 828 830 831 833 836 838 839 841 844 845 847 847 848 849 850 850 850
738 729 725 729 730 726 725 729 736 734 731 735 732 733 742 750 765 772 761 757 755 743 733 723 724 736 731 713 704 705 709 710 710 713 716 718 723 727 730 733 737 740 743 747 752 758 763 765 768 773 777 780 783 785 789 792 795 798 801 803 805 808 811 813 815 818 821 823 825 827 828 830 833 835 836 837 840 842 843 845 846 847 848 849 849 849
741 736 729 729 728 725 723 720 724 725 727 729 721 724 731 732 749 760 750 751 749 739 738 735 736 740 731 715 703 700 706 707 706 709 711 714 717 720 725 729 734 737 740 744 749 755 759 762 766 770 774 778 780 783 786 791 794 796 800 802 804 806 807 810 812 815 819 822 824 826 827 829 831 833 835 837 839 840 842 843 844 846 847 847 848 848
735 731 722 723 719 719 724 716 712 720 730 726 715 722 729 718 725 740 741 740 737 736 742 743 737 724 715 713 705 703 705 704 706 708 710 715 717 719 724 727 731 734 736 740 746 751 756 759 764 767 771 774 778 781 784 788 792 794 798 800 802 804 806 808 811 813 817 820 823 824 826 828 830 833 835 836 838 839 840 842 843 845 845 846 847 847
731 726 716 720 719 716 720 715 710 718 725 724 721 724 719 706 711 733 745 740 738 746 745 739 734 720 714 716 709 707 708 704 707 709 711 716 718 721 725 725 728 731 733 737 741 746 752 756 760 764 767 771 774 778 781 786 789 792 795 798 800 803 805 808 810 812 815 818 821 823 825 828 830 832 834 835 836 838 839 842 843 844 845 845 846 847
722 725 720 723 726 719 714 714 714 712 711 719 724 717 710 710 711 722 743 749 750 755 743 731 734 729 726 724 712 709 711 707 708 709 710 714 717 721 724 723 725 727 731 736 739 743 748 752 757 761 764 768 771 775 779 783 787 790 794 796 799 801 803 806 809 811 813 816 819 822 824 826 828 830 833 834 835 837 839 841 842 843 844 845 846 847
715 725 725 721 725 722 714 718 725 717 707 712 714 706 711 729 729 726 738 748 753 757 745 731 730 725 721 717 711 712 711 707 707 707 709 712 714 718 719 720 723 726 730 734 737 741 745 749 754 758 762 765 769 773 777 781 785 788 792 795 797 799 801 803 806 809 812 814 817 820 822 825 827 829 831 833 835 837 839 840 841 843 844 845 846 847
715 722 727 720 718 720 719 722 729 726 717 715 713 706 710 722 726 725 728 731 739 749 746 738 732 723 710 702 703 708 706 704 706 706 706 708 710 713 714 716 720 724 728 731 735 739 742 747 751 755 760 762 766 771 774 779 783 786 790 793 795 797 800 802 803 806 810 813 815 818 820 823 825 828 830 832 834 836 838 839 840 842 843 844 846 847
717 720 726 721 715 720 725 722 720 721 721 723 720 716 716 716 714 717 720 716 722 734 740 742 739 721 699 693 698 701 699 700 702 703 704 704 705 707 709 712 718 722 725 728 732 736 740 746 750 754 758 761 764 769 772 777 781 784 789 791 793 796 798 800 802 805 809 812 814 816 818 821 824 827 829 831 833 835 837 838 839 841 842 843 845 846
719 719 722 723 719 721 722 714 709 710 712 717 718 715 716 716 715 723 727 717 713 720 724 732 738 717 690 688 694 694 694 694 693 697 699 699 700 703 706 711 715 719 723 726 730 734 739 744 748 753 757 759 763 766 770 775 779 782 786 789 792 794 796 798 800 804 808 810 812 814 817 820 823 825 828 830 832 834 835 837 839 840 842 843 845 846
719 717 719 722 720 715 711 707 706 705 705 709 712 709 708 710 713 724 730 721 718 719 712 719 731 714 690 688 691 689 691 691 691 693 695 696 699 702 706 710 714 718 722 726 729 733 738 742 746 751 755 758 761 764 768 773 776 780 783 787 790 792 795 797 799 802 805 807 809 813 815 819 822 824 827 829 831 833 835 836 838 840 841 843 844 846
722 719 717 719 715 708 705 707 707 704 705 710 711 706 705 706 707 711 713 713 720 724 718 728 736 716 694 691 690 689 691 692 695 697 699 702 704 705 708 711 715 719 722 725 729 732 736 741 745 750 753 757 759 762 766 770 773 778 781 785 788 790 793 795 798 801 803 805 808 812 815 818 821 823 826 828 830 832 834 836 837 839 841 842 844 846
723 718 715 720 724 722 721 721 719 712 709 710 708 704 703 703 705 709 707 709 721 721 717 731 736 713 695 694 692 692 694 694 696 698 700 704 706 707 710 712 715 719 721 724 729 732 735 739 743 747 751 755 757 760 764 767 771 775 779 783 786 789 792 794 797 800 802 804 808 811 814 817 820 822 825 827 829 831 833 835 837 839 840 842 844 846
721 717 713 719 727 731 730 725 720 714 710 708 706 705 705 703 705 711 714 719 727 721 714 722 724 706 695 695 694 694 695 696 697 698 699 702 704 705 708 710 714 717 720 723 727 731 734 737 742 746 750 753 756 758 761 764 768 773 776 781 784 787 791 793 797 800 801 804 807 811 814 816 819 822 824 826 828 830 832 834 836 838 839 842 843 845
719 717 713 714 716 715 712 708 704 705 710 713 710 707 707 706 704 708 717 722 722 719 715 713 711 705 697 692 690 691 693 696 697 699 700 701 703 705 706 709 712 715 719 722 726 730 733 736 741 744 748 752 754 757 760 763 767 771 774 779 782 786 789 792 795 798 800 803 807 810 813 815 818 821 823 825 827 829 831 833 836 837 839 841 843 845
721 719 714 714 712 704 698 697 698 701 706 709 710 709 708 708 708 711 718 716 712 719 721 708 704 710 702 688 685 687 689 694 696 697 699 700 702 704 706 709 712 714 718 721 724 728 730 734 739 742 746 750 753 756 759 762 765 769 773 777 780 784 787 789 794 797 800 803 806 809 811 814 817 819 821 824 826 828 831 833 835 837 838 841 842 844
720 718 712 712 712 704 699 700 700 700 701 701 704 706 707 708 710 713 716 712 710 718 718 705 704 710 702 688 683 686 690 693 694 694 695 697 700 702 705 708 712 714 717 719 722 724 727 732 736 739 743 747 751 755 758 761 764 768 772 775 779 783 785 788 793 796 798 802 804 807 810 813 815 818 820 823 825 828 830 832 834 836 838 840 842 844
718 717 713 713 712 706 701 701 700 701 703 701 699 700 702 704 706 710 713 711 709 713 710 703 705 707 699 688 684 688 692 692 692 694 695 697 700 702 704 707 710 713 715 717 720 722 725 730 734 738 741 744 749 753 755 759 763 766 770 774 778 781 783 787 792 795 796 800 803 806 808 811 813 816 819 822 824 827 829 831 833 835 837 839 841 843
718 717 714 713 713 708 701 700 701 702 704 704 701 697 697 701 704 707 709 709 710 713 709 706 710 707 695 686 685 689 692 691 693 695 696 697 699 701 704 706 708 711 712 715 718 721 724 729 732 735 739 743 746 750 753 757 761 765 769 773 776 779 782 786 790 793 795 798 801 804 807 809 812 815 818 821 823 826 828 830 832 834 837 839 840 842
719 718 712 712 716 711 703 705 706 701 702 706 704 698 696 699 703 705 706 707 709 712 712 713 714 706 692 686 687 688 689 692 694 694 696 697 698 699 703 704 706 708 709 712 716 720 722 726 729 732 736 741 745 749 753 756 760 764 767 770 774 777 781 785 788 791 794 796 799 803 805 808 811 814 817 819 822 824 827 829 831 833 836 837 839 841
716 717 712 712 719 713 704 706 706 704 710 711 701 693 694 696 699 701 702 703 703 705 711 713 708 697 688 686 688 688 689 691 692 692 694 696 697 699 701 702 703 705 706 708 712 717 720 723 727 731 734 739 743 747 752 755 759 763 765 768 772 776 780 783 786 790 792 794 798 801 804 807 810 813 816 818 821 823 825 828 830 832 834 836 838 840
715 717 713 713 721 718 706 704 707 711 715 707 688 683 688 691 695 700 700 699 698 698 701 702 696 690 687 686 688 689 688 688 689 690 691 692 694 697 698 699 700 702 704 707 709 714 718 722 726 731 734 738 743 747 751 755 758 761 764 768 772 775 779 782 785 788 791 793 797 800 803 806 809 812 815 817 819 822 824 827 829 831 834 835 837 840
717 717 715 717 723 718 705 706 719 718 705 694 686 683 683 684 686 692 693 691 692 693 694 695 692 687 685 683 683 685 686 687 688 689 689 690 691 693 695 695 697 699 702 705 707 711 716 721 725 729 733 738 742 745 750 754 757 760 763 767 771 774 777 780 783 786 789 792 795 798 801 805 808 811 813 815 818 820 823 826 828 830 832 834 836 839
715 719 722 722 720 715 706 707 716 710 693 689 694 691 687 687 687 692 697 692 687 689 691 691 689 684 682 681 680 683 686 687 688 687 686 687 688 689 691 691 692 696 699 702 705 709 713 718 723 727 732 736 741 744 749 752 755 758 762 766 769 772 775 778 781 785 788 791 794 796 799 803 806 809 811 814 816 819 822 824 827 829 831 833 836 838
713 723 728 724 716 713 710 703 698 698 695 693 694 691 689 690 688 692 700 694 683 683 686 686 685 682 680 681 682 683 686 688 687 684 682 683 685 685 686 687 689 694 697 701 706 709 713 718 722 726 731 735 739 744 747 749 752 756 760 765 768 771 775 778 780 783 786 789 792 795 798 801 803 806 809 812 815 818 820 822 825 827 830 832 835 837
713 721 723 721 715 711 712 706 696 701 704 696 691 688 686 688 685 684 695 694 681 678 681 681 682 680 679 683 685 686 688 690 687 680 677 680 682 683 685 686 688 692 696 700 705 709 713 717 721 725 730 733 738 742 744 747 751 755 759 763 767 770 773 776 778 781 783 787 790 793 796 800 802 805 808 811 814 816 818 820 823 826 828 831 833 835
716 719 717 719 717 711 713 711 702 703 704 696 691 688 687 690 686 685 698 697 677 671 675 676 677 678 678 683 686 687 690 692 689 682 678 679 680 682 685 686 687 691 695 699 703 707 712 716 720 725 729 732 737 740 742 746 750 754 758 761 765 768 771 773 776 778 780 784 787 791 794 798 801 804 807 810 812 815 817 819 822 825 827 830 832 834
720 723 720 719 717 711 713 712 703 701 700 693 690 689 688 690 688 694 707 699 676 672 676 675 675 677 678 682 686 687 689 688 686 684 681 680 680 682 684 685 687 691 695 698 703 707 712 716 720 724 727 730 734 737 740 745 749 752 755 759 762 765 768 771 774 776 780 783 786 790 792 795 798 801 805 808 811 813 816 819 821 824 826 829 831 834
719 720 718 717 713 709 710 708 699 697 697 692 691 690 689 690 693 699 704 693 679 678 679 677 679 679 679 682 684 683 683 682 682 683 682 681 680 682 684 686 688 691 694 697 702 706 711 716 719 722 725 729 732 735 739 743 747 750 753 756 760 763 766 769 772 776 779 783 785 788 791 793 796 799 803 807 809 812 815 818 820 823 825 828 831 833
717 716 717 720 717 711 707 702 697 697 697 692 690 689 688 694 699 697 692 685 681 680 678 679 681 680 680 682 681 679 680 680 681 683 682 681 681 683 686 688 688 691 693 697 702 706 710 714 718 721 724 728 731 734 737 741 745 748 752 754 757 761 765 768 771 774 777 781 784 787 790 793 796 799 802 806 808 811 814 817 820 822 825 828 830 831
712 715 715 715 715 714 709 705 706 707 699 692 691 691 691 696 698 692 686 682 681 679 678 679 679 680 682 682 680 680 680 680 681 683 683 682 683 685 687 688 688 691 693 696 701 705 708 712 716 719 722 726 730 733 735 739 743 746 750 753 755 760 765 767 769 772 776 779 782 785 788 792 795 799 802 805 808 811 814 816 819 822 824 826 828 830
710 712 710 707 707 711 711 707 706 702 694 690 693 694 693 693 692 689 688 684 681 680 680 678 678 680 682 681 680 682 682 681 682 683 683 684 684 686 688 689 690 692 693 696 700 703 707 711 714 717 721 725 728 732 734 737 741 744 748 751 754 759 763 765 768 772 775 778 781 784 787 791 795 798 801 804 807 810 813 815 818 820 823 825 827 828
708 706 708 706 701 700 702 701 696 692 690 691 693 692 692 692 690 690 690 686 683 682 681 680 681 681 682 682 682 682 682 682 682 682 683 684 684 685 688 691 693 695 697 699 701 703 706 709 713 717 721 724 727 730 733 735 739 742 746 749 753 757 761 763 766 771 774 776 779 783 786 790 794 797 800 803 806 809 811 813 816 819 822 824 825 827
706 704 705 704 698 695 696 695 692 691 691 691 691 692 693 691 689 689 689 687 685 684 682 682 683 682 682 683 683 682 682 682 682 682 683 684 685 685 686 689 693 696 700 701 702 704 705 708 713 716 719 723 726 729 732 734 737 740 744 747 751 755 759 761 765 769 772 774 777 781 785 789 793 796 799 802 805 807 810 812 814 817 820 822 823 824
703 704 704 702 702 702 699 693 690 691 691 691 691 691 691 690 689 690 690 687 686 686 685 684 685 684 683 684 683 683 683 682 682 684 684 685 686 687 687 688 690 695 699 701 703 704 705 707 711 715 718 722 725 728 731 734 736 739 743 746 750 754 757 760 763 766 770 773 776 780 784 787 791 794 797 800 803 806 808 810 813 815 817 818 820 822
703 706 704 700 700 700 696 692 690 690 689 690 691 690 690 691 692 692 690 687 685 686 687 686 685 684 684 685 684 684 685 685 684 684 684 684 685 686 688 689 690 694 698 700 702 704 705 706 710 715 718 722 725 727 730 732 735 739 742 745 748 752 755 759 762 765 768 772 775 779 782 785 788 792 795 798 801 804 806 808 810 812 813 815 817 819
706 706 700 696 697 696 693 691 691 692 692 692 691 692 692 694 694 693 690 685 684 686 688 688 687 687 687 687 686 685 686 687 686 685 685 685 685 686 688 690 691 694 697 698 701 704 705 707 710 714 718 722 724 727 729 732 734 737 740 743 747 750 753 757 760 764 767 771 774 778 781 784 787 790 793 796 799 802 804 805 807 809 811 813 815 817
705 705 698 697 700 698 693 690 690 694 696 695 693 694 694 693 693 691 688 686 686 687 688 689 689 689 689 690 688 687 688 689 688 688 687 687 687 689 690 691 693 695 696 699 702 704 706 708 711 715 719 722 724 726 729 732 734 737 739 742 745 748 752 755 759 763 766 769 773 776 779 782 785 788 791 794 797 800 802 804 806 808 810 812 814 816
702 704 703 702 701 696 692 689 688 691 696 696 694 693 693 692 692 690 690 691 691 690 690 690 690 691 691 692 691 690 690 690 690 689 689 689 691 692 692 693 694 695 697 700 703 704 705 708 712 715 719 722 723 725 728 731 733 736 738 741 744 747 750 753 757 760 764 767 770 774 777 780 783 786 789 792 794 797 800 803 805 808 810 811 813 815